Location: Sternwarte Zollern-Alb
(48.2880°N, 8.6780°E)
Time: 03:48:18
(UTC+02:00)

ISS - Pass Details

Date: 22 April 2026
Orbit: 414 x 424 km, 51.6° (Epoch: 19 May)

Event Time Altitude Azimuth Distance (km) Brightness Sun altitude
Exits shadow 05:29:36 12° 231° (SW) 1,366 -1.8 -8.8°
Maximum altitude 05:32:35 60° 152° (SSE) 486 -3.5 -8.4°
Drops below altitude 10° 05:35:56 10° 72° (ENE) 1,507 0.7 -7.9°
Sets 05:38:03 0° 68° (ENE) 2,376 2.5 -7.6°
